Regional Weather Roundup
Issued by NWS Grand Forks, ND

Home | Current Version | Previous Version | Graphics & Text | Print | Product List | Glossary On
Versions: 1 2 3 4 5 6 7 8 9 10 11 12 13 14 15 16 17 18 19 20 21 22 23 24 25 26 27 28 29 30 31 32 33 34 35 36 37 38 39 40 41 42 43 44 45 46 47 48 49 50
895
ASUS43 KFGF 111731
RWRFGF
PRAIRIE TO PINES  WEATHER ROUNDUP
NATIONAL WEATHER SERVICE EASTERN NORTH DAKOTA/GRAND FORKS ND
1100 AM CST THU FEB 11 2016

 **SATELLITE DATA USED TO AUGMENT SKY COVER AT AUTOMATED STATIONS**
 *****  WEATHER ACROSS EASTERN NORTH DAKOTA  *****

CITY           SKY/WX    TMP DP  RH WIND       PRES   REMARKS
GRAND FORKS    FLURRIES  10   3  73 SW7       30.26S WCI  -1
GRAND FRKS AFB CLOUDY    10   2  71 SW8       30.24F WCI  -2
DEVILS LAKE    FLURRIES  11   6  81 CALM      30.19S
FARGO          CLOUDY    11   1  64 CALM      30.25F
WAHPETON ARPT  CLOUDY    10   5  79 SE6       30.25F WCI   1
$$

 ***** WEATHER ACROSS CENTRAL AND WESTERN NORTH DAKOTA  *****

CITY           SKY/WX    TMP DP  RH WIND       PRES   REMARKS
BISMARCK       LGT SNOW  23  16  74 CALM      30.14R
MINOT          CLOUDY    18   9  68 VRB5      30.17R HAZE    WCI  11
JAMESTOWN      CLOUDY    10   7  87 S6        30.16S FOG     WCI   0
MINOT AFB      LGT SNOW  16  12  86 NE5       30.16R FOG     WCI   9
GARRISON         N/A     18  12  77 E6        30.13R WCI  10
WILLISTON      LGT SNOW  23  19  85 NE5       30.13R VSB 1   WCI  17
DICKINSON      LGT SNOW  23  20  88 NE10      30.01R VSB 3/4 WCI  12
HETTINGER      LGT SNOW  30  27  88 E7        30.00S VSB 3/4 WCI  23
$$

 *****  OTHER AIRPORT OBSERVATIONS IN OUR AREA  *****

CITY           SKY/WX    TMP DP  RH WIND       PRES   REMARKS
WALHALLA       FAIR      10   9  92 NW6       30.23S WCI   1
GRAFTON AIRPOR CLOUDY    10   5  79 SW7       30.26F WCI   0
VALLEY CITY AR CLOUDY     9   3  78 SE3       30.21S
CANDO          CLOUDY    10   7  85 CALM      30.21S
CAVALIER APRT  CLOUDY    10   5  79 SW5       30.24S WCI   2
GWINNER        CLOUDY    12   9  85 E6        30.21S WCI   3
SHEYENNE NWR     N/A     11   4  72 SE3       29.95S
ROLLA          FAIR       9   5  85 N5        30.16S WCI   0
 ***** THE ABOVE OBSERVATIONS ARE NON NWS ARE NOT QUALITY
       CONTROLLED AND MAY MIS-REPORT RAIN FOR SNOW...
$$

  *****  WEATHER ACROSS NORTHERN MINNESOTA  *****

CITY           SKY/WX    TMP DP  RH WIND       PRES   REMARKS
FLAG ISLAND    SUNNY      1  -8  66 S3        30.19F
WARROAD        SUNNY      5  -4  66 W9        30.20F WCI  -9
ROSEAU         CLOUDY     5  -2  72 W5        30.21F WCI  -4
HALLOCK        CLOUDY     9   3  78 SW7       30.24S WCI  -3
THF RVR FALLS  CLOUDY     7   7 100 SW7       30.24S WCI  -5
BAUDETTE       CLOUDY     5  -6  60 W3        30.19F
WASKISH        CLOUDY     5  -2  72 SW7       30.20F WCI  -7
CROOKSTON      CLOUDY     9   1  72 SW8       30.26F WCI  -4
STEPHEN NDAWN    N/A      9   1  72 SW9         N/A  WCI  -5
GREENBUSH NDAW   N/A      7   1  78 SW7         N/A  WCI  -5
$$
  *****  WEATHER ACROSS CENTRAL AND WEST MINNESOTA  *****

CITY           SKY/WX    TMP DP  RH WIND       PRES   REMARKS
FOSSTON        CLOUDY     7  -2  66 SW5       30.23R WCI  -2
BEMIDJI        CLOUDY     3  -5  68 SW3       30.20F
PARK RAPIDS    CLOUDY     3  -5  69 S3        30.20F
ELBOW LAKE     CLOUDY    11   4  73 S8        30.24S HAZE    WCI   0
WADENA         CLOUDY     9   0  66 SW3       30.21F
DETROIT LAKES  CLOUDY     9   3  78 S3        30.21F
MOORHEAD       CLOUDY     9  -2  61 CALM      30.26S
FERGUS FALLS   CLOUDY    10   5  79 S5        30.27S WCI   2
MORRIS MN      CLOUDY    12   7  79 S6        30.23F WCI   3
STAPLES        CLOUDY     7  -4  61 S3        30.23S
$$
  *****  WEATHER ELSEWHERE ACROSS MINNESOTA  *****

CITY           SKY/WX    TMP DP  RH WIND       PRES   REMARKS
DULUTH         MOSUNNY    4  -8  57 W6        30.21F WCI  -7
INTRNTL FALLS  CLOUDY     4  -7  60 W7        30.20F WCI  -8
ELY            CLOUDY     1  -6  71 SW6       30.17F WCI -10
CLOQUET        CLOUDY     5  -9  51 CALM      30.22F
WHEATON        CLOUDY    12   9  85 SE7       30.26S WCI   2
BRAINERD       CLOUDY     4  -5  66 CALM      30.24F
HIBBING        CLOUDY     2  -6  69 CALM      30.20F
ALEXANDRIA     CLOUDY    11   1  64 S8        30.22F WCI  -1
SAINT CLOUD    CLOUDY     8  -3  61 S6        30.28F WCI  -2
MINNEAPOLIS    CLOUDY    11  -4  51 S3        30.33S
$$

  *****  WEATHER ACROSS SOUTH DAKOTA  *****

CITY           SKY/WX    TMP DP  RH WIND       PRES   REMARKS
SIOUX FALLS    CLOUDY    16   7  67 S10       30.23F WCI   4
BROOKINGS      LGT SNOW  14   8  77 S12       30.18F WCI   0
WATERTOWN      LGT SNOW  15   9  76 S12       30.15F WCI   2
HURON          CLOUDY    20  15  81 SE12      30.17F WCI   8
SISSETON         N/A     11   6  81 S9        30.21F WCI  -2
ABERDEEN       LGT SNOW  19  13  77 S6        30.18S WCI  11
MITCHELL       LGT SNOW  21  16  81 S17       30.18F WCI   7
PIERRE         CLOUDY    26  23  88 SE9       30.10S WCI  17
MOBRIDGE       LGT SNOW  24  21  88 SE9       30.08S VSB 3/4 WCI  14
RAPID CITY     MOSUNNY   40  33  76 VRB3      30.01S
$$

  *****  SOME WEATHER IN NEARBY STATES *****

CITY           SKY/WX    TMP DP  RH WIND       PRES   REMARKS
GLASGOW MT     CLOUDY    29  24  82 NE8       30.11R HAZE    WCI  21
GREAT FALLS MT PTSUNNY   48  28  46 SW13      30.17R
CHEYENNE WY    PTSUNNY   49  17  28 W24G36    30.14R
SCOTTSBLUFF NE MOSUNNY   50  27  40 NW15      30.10R
OMAHA NE       CLOUDY    18   6  59 SE6       30.32S WCI  10
DES MOINES IA  CLOUDY    14   0  53 S3        30.35R
DAVENPORT IA   SUNNY     17   1  49 VRB5      30.36S WCI  10
CHICAGO IL     MOSUNNY   15   0  51 N5        30.32S WCI   8
EAU CLAIRE WI  SUNNY      6  -5  60 W7        30.32R WCI  -6
LA CROSSE WI   SUNNY      9  -3  58 CALM      30.36S
$$

  *****  SOME NATIONAL WEATHER *****

CITY           SKY/WX    TMP DP  RH WIND       PRES   REMARKS
LA GUARDIA NY  PTSUNNY   25   0  33 W17G33    29.91S WCI  12
RALEIGH NC     SUNNY     35   5  28 W13G21    30.20F
ATLANTA GA     SUNNY     46  17  31 CALM      30.18F
NEW ORLEANS LA MOSUNNY   71  55  56 W17G25    30.23F
OKLAHOMA CITY  MOSUNNY   51  31  46 N9        30.21R
ALBUQUERQUE NM SUNNY     48  20  32 N8        30.38R
SALT LAKE CITY FOG       30  26  85 CALM      30.47R VSB 1
LOS ANGELES CA SUNNY     71  34  25 CALM      30.11R
BOISE ID       MOSUNNY   36  30  79 S5        30.40S
SEATTLE WA     CLOUDY    48  46  93 SE5       30.18S
$$

*** WEATHER ACROSS MANITOBA...SASKATCHEWAN AND ONTARIO ***
                ***ONTARIO***

CITY           SKY/WX    TMP DP  RH WIND       PRES   REMARKS
GERALDTON      PTSUNNY   -2 -11  65 W9        30.01F WCI -18
THUNDER BAY    CLOUDY     1  -6  71 W8        30.19F WCI -12
SIOUX LOOKOUT  FLURRIES   1  -4  78 W9        30.09F WCI -14
TORONTO        MOSUNNY   10  -2  56 NW10      30.05R WCI  -3
BIG TROUT LK   CLOUDY   -18 -26  69 NW13G18   29.97S WCI -41
PICKLE LAKE    CRYSTALS  -2 -11  65 W12G20    29.97F WCI -20
DRYDEN         CLOUDY     1  -4  78 W10       30.11F WCI -14
KENORA         PTSUNNY    3  -8  60 W10       30.15  WCI -12
$$
                *** MANITOBA***

CITY           SKY/WX    TMP DP  RH WIND       PRES   REMARKS
BRANDON        FLURRIES   9   1  72 E8        30.22R WCI  -4
DAUPHIN        CLOUDY     5   0  78 N6        30.29S WCI  -6
ISLAND LAKE    FLURRIES -15 -20  76 NW12      30.12S WCI -36
PILOT MOUND      N/A      7   3  85 N7          N/A  WCI  -5
THE PAS        MOSUNNY   -8 -15  71 NW9       30.30S WCI -25
THOMPSON       MOSUNNY  -15 -24  64 NW13G22   30.20R WCI -37
WINNIPEG       FLURRIES   3  -2  78 NW7       30.25F WCI  -9
LYNN LAKE      LGT SNOW -17 -24  70 NW14G21   30.25R WCI -40
CHURCHILL      CRYSTALS -27 -35  68 NW20G29   30.16  VSB 1   WCI -58
GILLAM         SUNNY    -20 -29  63 NW16      30.13S WCI -46
$$
                ***SASKATCHEWAN***

CITY           SKY/WX    TMP DP  RH WIND       PRES   REMARKS
ESTEVAN        FLURRIES  16  10  79 E7        30.17  WCI   6
KINDERSLEY     CLOUDY    16  10  79 E9        30.20  WCI   4
LLOYDMINSTER   FLURRIES  12   9  85 SE9       30.21R WCI   0
PRINCE ALBERT  FLURRIES   5   1  85 NE5       30.32R WCI  -4
REGINA         FLURRIES  16  12  86 N2        30.19R
YORKTON        CLOUDY     5   1  85 N9        30.23R WCI  -9
N. BATTLEFORD  FLURRIES  10   5  79 SE7       30.29R WCI   0
LA RONGE       MOSUNNY   -8 -13  77 CALM      30.37R
SASKATOON      FLURRIES   7   1  78 E9        30.30R WCI  -7
SWIFT CURRENT  CLOUDY    18  16  93 E10       30.13S WCI   6
$$
NOTE: THESE ARE AUTOMATED STATIONS WITH LIMITED QUALITY CONTROL
      "FAIR" INDICATES FEW OR NO CLOUDS BELOW 12,000 FEET WITH NO
      SIGNIFICANT WEATHER AND/OR OBSTRUCTIONS TO VISIBILITY.
      SKY/WX - SKY CONDITION AND SIGNIFICANT WEATHER.
      TMP - AIR TEMPERATURE.    DP   - DEWPOINT TEMPERATURE.
      RH  - RELATIVE HUMIDITY.  PRES - PRESSURE.
      HX  - HEAT INDEX.         WCI  - WIND CHILL INDEX.
$




USA.gov is the U.S. government's official web portal to all federal, state and local government web resources and services.